Time,TemperatureF,DewpointF,PressureIn,WindDirection,WindDirectionDegrees,WindSpeedMPH,WindSpeedGustMPH,Humidity,HourlyPrecipIn,Conditions,Clouds,dailyrainin,SoftwareType,DateUTC
2013-08-27 00:04:00,64.4,64.4,29.85,SSW,203,0.0,0.0,100,0.00,,,0.00,WSDL version 420,2013-08-27 04:04:00,
2013-08-27 00:09:00,64.4,64.4,29.85,WSW,248,0.0,0.0,100,0.00,,,0.00,WSDL version 420,2013-08-27 04:09:00,
2013-08-27 00:14:00,64.3,64.3,29.85,WSW,248,0.0,0.0,100,0.00,,,0.00,WSDL version 420,2013-08-27 04:14:00,
2013-08-27 00:19:00,64.2,64.2,29.83,WSW,248,0.0,0.0,100,0.00,,,0.00,WSDL version 420,2013-08-27 04:19:00,
2013-08-27 00:24:00,64.2,64.2,29.83,WSW,248,0.0,0.0,100,0.00,,,0.00,WSDL version 420,2013-08-27 04:24:00,
2013-08-27 00:29:00,64.4,64.4,29.83,WSW,248,0.0,0.0,100,0.00,,,0.00,WSDL version 420,2013-08-27 04:29:00,
2013-08-27 00:34:00,64.4,64.4,29.85,WSW,248,0.0,0.0,100,0.00,,,0.00,WSDL version 420,2013-08-27 04:34:00,
2013-08-27 00:40:00,64.4,64.4,29.85,WSW,251,0.0,2.0,100,0.00,,,0.00,WSDL version 420,2013-08-27 04:40:00,
2013-08-27 00:44:00,64.4,64.4,29.85,West,278,1.6,2.7,100,0.00,,,0.00,WSDL version 420,2013-08-27 04:44:00,
2013-08-27 00:49:00,64.4,64.4,29.85,WSW,248,0.4,3.4,100,0.00,,,0.00,WSDL version 420,2013-08-27 04:49:00,
2013-08-27 00:54:00,64.5,64.5,29.85,WSW,239,0.8,3.4,100,0.00,,,0.00,WSDL version 420,2013-08-27 04:54:00,
2013-08-27 00:59:00,64.6,64.6,29.85,WSW,244,2.0,2.5,100,0.00,,,0.00,WSDL version 420,2013-08-27 04:59:00,
2013-08-27 01:04:00,64.6,64.6,29.85,WSW,248,1.2,2.5,100,0.00,,,0.00,WSDL version 420,2013-08-27 05:04:00,
2013-08-27 01:09:00,64.8,64.8,29.85,SW,236,0.9,2.0,100,0.00,,,0.00,WSDL version 420,2013-08-27 05:09:00,
2013-08-27 01:14:00,64.8,64.8,29.85,SW,225,0.5,1.6,100,0.00,,,0.00,WSDL version 420,2013-08-27 05:14:00,
2013-08-27 01:19:00,64.8,64.8,29.85,SW,225,0.0,1.3,100,0.00,,,0.00,WSDL version 420,2013-08-27 05:19:00,
2013-08-27 01:24:00,64.8,64.8,29.85,WSW,248,1.1,2.0,100,-99.99,,,-99.99,WSDL version 420,2013-08-27 05:24:00,
2013-08-27 01:29:00,64.9,64.9,29.85,SW,233,0.0,2.7,100,0.00,,,0.00,WSDL version 420,2013-08-27 05:29:00,
2013-08-27 01:34:00,64.9,64.9,29.85,SW,225,0.7,2.7,100,0.00,,,0.00,WSDL version 420,2013-08-27 05:34:00,
2013-08-27 01:39:00,64.9,64.9,29.85,SW,225,0.0,1.6,100,0.00,,,0.00,WSDL version 420,2013-08-27 05:39:00,
2013-08-27 01:44:00,64.9,64.9,29.85,SW,225,0.0,0.0,100,0.00,,,0.00,WSDL version 420,2013-08-27 05:44:00,
2013-08-27 01:49:00,64.9,64.9,29.85,WSW,248,0.0,1.3,100,0.00,,,0.00,WSDL version 420,2013-08-27 05:49:00,
2013-08-27 01:54:00,64.9,64.9,29.85,SSW,203,0.0,1.3,100,0.00,,,0.00,WSDL version 420,2013-08-27 05:54:00,
2013-08-27 01:59:00,64.9,64.9,29.85,South,180,0.0,0.9,100,0.00,,,0.00,WSDL version 420,2013-08-27 05:59:00,
2013-08-27 02:04:00,64.9,64.9,29.85,South,180,0.0,0.9,100,0.00,,,0.00,WSDL version 420,2013-08-27 06:04:00,
2013-08-27 02:09:00,64.9,64.9,29.85,South,180,0.0,0.0,100,0.00,,,0.00,WSDL version 420,2013-08-27 06:09:00,
2013-08-27 02:14:00,64.9,64.9,29.85,SE,139,0.7,2.9,100,0.00,,,0.00,WSDL version 420,2013-08-27 06:14:00,
2013-08-27 02:19:00,64.9,64.9,29.85,SSE,149,2.3,4.0,100,0.00,,,0.00,WSDL version 420,2013-08-27 06:19:00,
2013-08-27 02:24:00,64.9,64.9,29.85,WNW,298,1.1,4.0,100,0.00,,,0.00,WSDL version 420,2013-08-27 06:24:00,
2013-08-27 02:29:00,64.9,64.9,29.85,East,90,1.6,2.5,100,0.00,,,0.00,WSDL version 420,2013-08-27 06:29:00,
2013-08-27 02:34:00,64.9,64.9,29.85,East,83,0.0,2.5,100,0.00,,,0.00,WSDL version 420,2013-08-27 06:34:00,
2013-08-27 02:39:00,64.8,64.8,29.85,WNW,296,1.1,2.2,100,-99.99,,,-99.99,WSDL version 420,2013-08-27 06:39:00,
2013-08-27 02:44:00,64.8,64.8,29.85,West,270,0.0,2.2,100,0.00,,,0.00,WSDL version 420,2013-08-27 06:44:00,
2013-08-27 02:49:00,64.6,64.6,29.85,West,270,0.0,2.2,100,0.00,,,0.00,WSDL version 420,2013-08-27 06:49:00,
2013-08-27 02:54:00,64.6,64.6,29.85,West,270,0.0,0.0,100,0.00,,,0.00,WSDL version 420,2013-08-27 06:54:00,
2013-08-27 02:59:00,64.4,64.4,29.85,West,270,0.0,0.0,100,0.00,,,0.00,WSDL version 420,2013-08-27 06:59:00,
2013-08-27 03:04:00,64.4,64.4,29.85,West,270,0.0,0.0,100,0.00,,,0.00,WSDL version 420,2013-08-27 07:04:00,
2013-08-27 03:09:00,64.4,64.4,29.85,WSW,248,0.5,1.1,100,0.00,,,0.00,WSDL version 420,2013-08-27 07:09:00,
2013-08-27 03:14:00,64.4,64.4,29.85,WSW,243,0.5,1.3,100,0.00,,,0.00,WSDL version 420,2013-08-27 07:14:00,
2013-08-27 03:19:00,64.4,64.4,29.85,SW,225,0.0,1.3,100,0.00,,,0.00,WSDL version 420,2013-08-27 07:19:00,
2013-08-27 03:24:00,64.4,64.4,29.85,SW,225,0.0,0.9,100,0.00,,,0.00,WSDL version 420,2013-08-27 07:24:00,
2013-08-27 03:29:00,64.3,64.3,29.85,SW,225,0.0,0.9,100,-99.99,,,-99.99,WSDL version 420,2013-08-27 07:29:00,
2013-08-27 03:34:00,64.2,64.2,29.85,WSW,248,0.0,0.0,100,0.00,,,0.00,WSDL version 420,2013-08-27 07:34:00,
2013-08-27 03:39:00,64.2,64.2,29.85,WSW,248,0.0,0.0,100,0.00,,,0.00,WSDL version 420,2013-08-27 07:39:00,
2013-08-27 03:44:00,64.2,64.2,29.85,WSW,248,0.4,1.6,100,0.00,,,0.00,WSDL version 420,2013-08-27 07:44:00,
2013-08-27 03:49:00,64.2,64.2,29.85,WSW,248,0.0,1.6,100,0.00,,,0.00,WSDL version 420,2013-08-27 07:49:00,
2013-08-27 03:54:00,64.2,64.2,29.85,SW,225,0.0,1.6,100,0.00,,,0.00,WSDL version 420,2013-08-27 07:54:00,
2013-08-27 03:59:00,64.2,64.2,29.85,SW,234,0.0,0.0,100,0.00,,,0.00,WSDL version 420,2013-08-27 07:59:00,
2013-08-27 04:04:00,64.1,64.1,29.85,WSW,248,0.0,0.0,100,-99.99,,,-99.99,WSDL version 420,2013-08-27 08:04:00,
2013-08-27 04:09:00,64.0,64.0,29.85,WSW,248,0.0,0.0,100,0.00,,,0.00,WSDL version 420,2013-08-27 08:09:00,
2013-08-27 04:14:00,64.0,64.0,29.85,WSW,248,0.0,0.0,100,0.00,,,0.00,WSDL version 420,2013-08-27 08:14:00,
2013-08-27 04:19:00,63.9,63.9,29.85,WSW,248,0.0,0.0,100,0.00,,,0.00,WSDL version 420,2013-08-27 08:19:00,
2013-08-27 04:24:00,63.9,63.9,29.85,SSW,203,0.0,0.0,100,0.00,,,0.00,WSDL version 420,2013-08-27 08:24:00,
2013-08-27 04:29:00,63.8,63.8,29.85,SSW,203,0.0,0.0,100,0.00,,,0.00,WSDL version 420,2013-08-27 08:29:00,
2013-08-27 04:34:00,63.4,63.4,29.85,ENE,68,0.0,0.0,100,0.00,,,0.00,WSDL version 420,2013-08-27 08:34:00,
2013-08-27 04:43:00,63.1,63.1,29.85,West,259,0.0,0.0,100,0.00,,,0.00,WSDL version 420,2013-08-27 08:43:00,
2013-08-27 04:48:00,63.1,63.1,29.85,SSW,203,0.0,1.1,100,0.00,,,0.00,WSDL version 420,2013-08-27 08:48:00,
2013-08-27 04:53:00,63.1,63.1,29.85,SW,225,0.7,2.0,100,0.00,,,0.00,WSDL version 420,2013-08-27 08:53:00,
2013-08-27 04:58:00,63.1,63.1,29.85,SSW,203,0.0,2.0,100,0.00,,,0.00,WSDL version 420,2013-08-27 08:58:00,
2013-08-27 05:03:00,63.1,63.1,29.85,SSW,203,0.0,0.0,100,0.00,,,0.00,WSDL version 420,2013-08-27 09:03:00,
2013-08-27 05:08:00,63.1,63.1,29.85,SSW,203,0.4,1.6,100,0.00,,,0.00,WSDL version 420,2013-08-27 09:08:00,
2013-08-27 05:13:00,63.1,63.1,29.85,SSW,203,1.3,1.6,100,0.00,,,0.00,WSDL version 420,2013-08-27 09:13:00,
2013-08-27 05:18:00,63.3,63.3,29.85,SSW,203,1.3,0.0,100,0.00,,,0.00,WSDL version 420,2013-08-27 09:18:00,
2013-08-27 05:23:00,63.1,63.1,29.85,SSW,203,1.3,0.0,100,0.00,,,0.00,WSDL version 420,2013-08-27 09:23:00,
2013-08-27 05:28:00,63.1,63.1,29.85,SW,225,0.0,1.3,100,0.00,,,0.00,WSDL version 420,2013-08-27 09:28:00,
2013-08-27 05:33:00,63.0,63.0,29.85,SW,225,0.0,1.3,100,0.00,,,0.00,WSDL version 420,2013-08-27 09:33:00,
2013-08-27 05:38:00,63.1,63.1,29.85,SW,225,0.0,0.0,100,0.00,,,0.00,WSDL version 420,2013-08-27 09:38:00,
2013-08-27 05:43:00,63.1,63.1,29.85,SW,225,0.0,0.0,100,0.00,,,0.00,WSDL version 420,2013-08-27 09:43:00,
2013-08-27 05:48:00,63.1,63.1,29.85,SW,225,1.6,1.6,100,0.00,,,0.00,WSDL version 420,2013-08-27 09:48:00,
2013-08-27 05:53:00,63.1,63.1,29.85,SW,225,1.6,1.6,100,0.00,,,0.00,WSDL version 420,2013-08-27 09:53:00,
2013-08-27 05:58:00,63.1,63.1,29.85,SW,225,1.6,1.6,100,0.00,,,0.00,WSDL version 420,2013-08-27 09:58:00,
2013-08-27 06:03:00,62.9,62.9,29.88,West,270,0.0,1.6,100,0.00,,,0.00,WSDL version 420,2013-08-27 10:03:00,
2013-08-27 06:08:00,62.9,62.9,29.88,West,270,0.0,0.0,100,0.00,,,0.00,WSDL version 420,2013-08-27 10:08:00,
2013-08-27 06:13:00,63.1,63.1,29.88,WSW,248,1.6,1.6,100,0.00,,,0.00,WSDL version 420,2013-08-27 10:13:00,
2013-08-27 06:18:00,63.1,63.1,29.85,WSW,248,1.3,1.6,100,0.00,,,0.00,WSDL version 420,2013-08-27 10:18:00,
2013-08-27 06:23:00,63.4,63.4,29.85,WSW,248,1.3,1.3,100,-99.99,,,-99.99,WSDL version 420,2013-08-27 10:23:00,
2013-08-27 06:28:00,63.5,63.5,29.85,North,0,0.0,1.3,100,0.00,,,0.00,WSDL version 420,2013-08-27 10:28:00,
2013-08-27 06:33:00,63.6,63.6,29.85,WSW,248,1.3,1.3,100,0.00,,,0.00,WSDL version 420,2013-08-27 10:33:00,
2013-08-27 06:38:00,63.7,63.7,29.85,North,-999,-999.0,-999.0,100,0.00,,,0.00,WSDL version 420,2013-08-27 10:38:00,
2013-08-27 06:43:00,63.8,63.8,29.85,North,-999,-999.0,-999.0,100,0.00,,,0.00,WSDL version 420,2013-08-27 10:43:00,
2013-08-27 06:48:00,63.9,63.9,29.85,North,-999,-999.0,-999.0,100,0.00,,,0.00,WSDL version 420,2013-08-27 10:48:00,
2013-08-27 06:53:00,64.0,64.0,29.85,North,-999,-999.0,-999.0,100,0.00,,,0.00,WSDL version 420,2013-08-27 10:53:00,
2013-08-27 06:58:00,64.0,64.0,29.85,North,-999,-999.0,-999.0,100,0.00,,,0.00,WSDL version 420,2013-08-27 10:58:00,
2013-08-27 07:03:00,64.1,64.1,29.85,North,-999,-999.0,-999.0,100,0.00,,,0.00,WSDL version 420,2013-08-27 11:03:00,
2013-08-27 07:08:00,64.2,64.2,29.85,North,-999,-999.0,-999.0,100,-99.99,,,-99.99,WSDL version 420,2013-08-27 11:08:00,
2013-08-27 07:13:00,64.4,64.4,29.85,North,-999,-999.0,-999.0,100,0.00,,,0.00,WSDL version 420,2013-08-27 11:13:00,
2013-08-27 07:18:00,64.5,64.5,29.85,North,-999,-999.0,-999.0,100,0.00,,,0.00,WSDL version 420,2013-08-27 11:18:00,
2013-08-27 07:23:00,64.6,64.6,29.85,North,-999,-999.0,-999.0,100,0.00,,,0.00,WSDL version 420,2013-08-27 11:23:00,
2013-08-27 07:27:00,64.8,64.8,29.85,North,-999,-999.0,-999.0,100,0.00,,,0.00,WSDL version 420,2013-08-27 11:27:00,
2013-08-27 07:33:00,64.9,64.9,29.85,North,-999,-999.0,-999.0,100,0.00,,,0.00,WSDL version 420,2013-08-27 11:33:00,
2013-08-27 07:37:00,64.9,64.8,29.85,North,-999,-999.0,-999.0,100,0.00,,,0.00,WSDL version 420,2013-08-27 11:37:00,
2013-08-27 07:42:00,64.8,64.8,29.85,North,-999,-999.0,-999.0,100,0.00,,,0.00,WSDL version 420,2013-08-27 11:42:00,
2013-08-27 07:47:00,64.9,64.9,29.85,North,-999,-999.0,-999.0,100,0.00,,,0.00,WSDL version 420,2013-08-27 11:47:00,
2013-08-27 07:52:00,65.1,65.1,29.85,North,-999,-999.0,-999.0,100,0.00,,,0.00,WSDL version 420,2013-08-27 11:52:00,
2013-08-27 07:57:00,65.3,65.3,29.85,North,-999,-999.0,-999.0,100,0.00,,,0.00,WSDL version 420,2013-08-27 11:57:00,
2013-08-27 08:02:00,65.3,65.3,29.85,North,-999,-999.0,-999.0,100,-99.99,,,-99.99,WSDL version 420,2013-08-27 12:02:00,
2013-08-27 08:07:00,65.3,65.3,29.85,North,-999,-999.0,-999.0,100,0.00,,,0.00,WSDL version 420,2013-08-27 12:07:00,
2013-08-27 08:13:00,65.3,65.3,29.85,North,-999,-999.0,-999.0,100,0.00,,,0.00,WSDL version 420,2013-08-27 12:13:00,
2013-08-27 08:18:00,65.3,65.3,29.85,North,-999,-999.0,-999.0,100,0.00,,,0.00,WSDL version 420,2013-08-27 12:18:00,
2013-08-27 08:23:00,65.3,65.3,29.85,North,-999,-999.0,-999.0,100,0.00,,,0.00,WSDL version 420,2013-08-27 12:23:00,
2013-08-27 08:28:00,65.3,65.3,29.85,North,-999,-999.0,-999.0,100,0.00,,,0.00,WSDL version 420,2013-08-27 12:28:00,
2013-08-27 08:33:00,65.3,65.3,29.85,North,-999,-999.0,-999.0,100,0.00,,,0.00,WSDL version 420,2013-08-27 12:33:00,
2013-08-27 08:38:00,65.3,65.3,29.85,North,-999,-999.0,-999.0,100,0.00,,,0.00,WSDL version 420,2013-08-27 12:38:00,
2013-08-27 08:43:00,65.5,65.5,29.85,North,-999,-999.0,-999.0,100,0.00,,,0.00,WSDL version 420,2013-08-27 12:43:00,
2013-08-27 08:48:00,65.5,65.5,29.85,East,90,2.0,2.0,100,0.00,,,0.00,WSDL version 420,2013-08-27 12:48:00,
2013-08-27 08:53:00,65.6,65.6,29.85,North,349,0.4,1.6,100,0.00,,,0.00,WSDL version 420,2013-08-27 12:53:00,
2013-08-27 08:58:00,65.8,65.8,29.85,North,0,0.0,1.6,100,0.00,,,0.00,WSDL version 420,2013-08-27 12:58:00,
2013-08-27 09:09:00,66.2,66.2,29.85,NNW,338,0.0,0.0,100,0.00,,,0.00,WSDL version 420,2013-08-27 13:09:00,
2013-08-27 09:14:00,66.4,66.4,29.85,North,-999,-999.0,-999.0,100,0.00,,,0.00,WSDL version 420,2013-08-27 13:14:00,
2013-08-27 09:22:00,67.1,67.1,29.85,NNW,338,1.1,1.1,100,0.00,,,0.00,WSDL version 420,2013-08-27 13:22:00,
2013-08-27 09:28:00,67.5,67.5,29.85,North,360,2.5,2.5,100,0.00,,,0.00,WSDL version 420,2013-08-27 13:28:00,
2013-08-27 09:35:00,68.2,68.2,29.85,NNE,23,0.9,3.8,100,0.00,,,0.00,WSDL version 420,2013-08-27 13:35:00,
2013-08-27 09:40:00,68.5,68.5,29.85,NNE,23,0.9,3.8,100,0.00,,,0.00,WSDL version 420,2013-08-27 13:40:00,
2013-08-27 09:46:00,68.9,68.6,29.85,NW,326,1.8,4.3,99,0.00,,,0.00,WSDL version 420,2013-08-27 13:46:00,
2013-08-27 09:51:00,68.9,67.6,29.85,NNW,338,3.5,5.4,96,0.00,,,0.00,WSDL version 420,2013-08-27 13:51:00,
2013-08-27 10:02:00,69.3,66.6,29.85,ESE,113,1.1,2.0,91,0.00,,,0.00,WSDL version 420,2013-08-27 14:02:00,
2013-08-27 10:07:00,69.4,66.9,29.85,NNE,23,1.6,3.1,91,0.00,,,0.00,WSDL version 420,2013-08-27 14:07:00,
2013-08-27 10:12:00,69.9,67.1,29.85,WNW,293,0.9,3.1,90,0.00,,,0.00,WSDL version 420,2013-08-27 14:12:00,
2013-08-27 10:17:00,70.5,66.8,29.85,North,360,2.5,3.6,88,0.00,,,0.00,WSDL version 420,2013-08-27 14:17:00,
2013-08-27 10:22:00,70.6,66.2,29.85,NNW,342,0.4,4.0,86,0.00,,,0.00,WSDL version 420,2013-08-27 14:22:00,
2013-08-27 10:27:00,70.8,66.0,29.85,NW,308,4.3,7.4,86,0.00,,,0.00,WSDL version 420,2013-08-27 14:27:00,
2013-08-27 10:32:00,70.7,65.5,29.85,NW,326,2.3,7.4,81,0.00,,,0.00,WSDL version 420,2013-08-27 14:32:00,
2013-08-27 10:37:00,70.9,65.6,29.85,NNW,338,3.4,3.6,83,0.00,,,0.00,WSDL version 420,2013-08-27 14:37:00,
2013-08-27 10:42:00,71.5,66.2,29.85,West,270,4.8,7.4,83,0.00,,,0.00,WSDL version 420,2013-08-27 14:42:00,
2013-08-27 10:47:00,71.6,65.6,29.85,NW,315,4.0,8.7,81,0.00,,,0.00,WSDL version 420,2013-08-27 14:47:00,
2013-08-27 10:52:00,71.8,65.7,29.85,WNW,293,2.2,8.7,81,0.00,,,0.00,WSDL version 420,2013-08-27 14:52:00,
2013-08-27 10:57:00,71.6,65.2,29.85,NW,315,6.0,7.6,79,0.00,,,0.00,WSDL version 420,2013-08-27 14:57:00,
2013-08-27 11:02:00,71.3,64.8,29.85,NW,315,4.7,7.6,80,-99.99,,,-99.99,WSDL version 420,2013-08-27 15:02:00,
2013-08-27 11:07:00,71.8,64.9,29.85,WNW,299,1.9,7.6,79,0.00,,,0.00,WSDL version 420,2013-08-27 15:07:00,
2013-08-27 11:12:00,72.0,65.1,29.85,WNW,296,3.4,6.0,79,-99.99,,,-99.99,WSDL version 420,2013-08-27 15:12:00,
2013-08-27 11:17:00,72.0,64.7,29.85,NNE,23,2.7,6.0,78,0.00,,,0.00,WSDL version 420,2013-08-27 15:17:00,
2013-08-27 11:22:00,71.9,65.0,29.85,North,-999,-999.0,-999.0,79,0.00,,,0.00,WSDL version 420,2013-08-27 15:22:00,
2013-08-27 11:27:00,72.0,64.7,29.85,North,0,0.0,3.8,78,0.00,,,0.00,WSDL version 420,2013-08-27 15:27:00,
2013-08-27 11:32:00,72.4,64.8,29.85,North,-999,-999.0,-999.0,77,0.00,,,0.00,WSDL version 420,2013-08-27 15:32:00,
2013-08-27 11:37:00,73.0,65.3,29.85,North,-999,-999.0,-999.0,78,0.00,,,0.00,WSDL version 420,2013-08-27 15:37:00,
2013-08-27 11:51:00,74.7,65.4,29.85,North,-999,-999.0,-999.0,73,0.00,,,0.00,WSDL version 420,2013-08-27 15:51:00,
2013-08-27 11:56:00,74.7,64.6,29.85,North,-999,-999.0,-999.0,71,0.00,,,0.00,WSDL version 420,2013-08-27 15:56:00,
2013-08-27 12:04:00,74.3,64.3,29.85,North,-999,-999.0,-999.0,71,0.00,,,0.00,WSDL version 420,2013-08-27 16:04:00,
2013-08-27 12:09:00,73.9,64.0,29.85,North,-999,-999.0,-999.0,71,0.00,,,0.00,WSDL version 420,2013-08-27 16:09:00,
2013-08-27 12:14:00,73.6,63.2,29.85,North,0,0.0,2.2,70,0.00,,,0.00,WSDL version 420,2013-08-27 16:14:00,
2013-08-27 12:22:00,74.3,63.9,29.85,West,270,3.1,3.1,70,0.00,,,0.00,WSDL version 420,2013-08-27 16:22:00,
2013-08-27 12:29:00,74.9,64.3,29.85,North,-999,-999.0,-999.0,69,0.00,,,0.00,WSDL version 420,2013-08-27 16:29:00,
2013-08-27 12:44:00,74.1,64.1,29.85,North,-999,-999.0,-999.0,71,0.00,,,0.00,WSDL version 420,2013-08-27 16:44:00,
2013-08-27 12:49:00,75.2,63.5,29.85,SSE,158,1.6,3.4,67,0.00,,,0.00,WSDL version 420,2013-08-27 16:49:00,
2013-08-27 12:56:00,75.0,63.8,29.85,SSE,158,1.6,3.4,68,0.00,,,0.00,WSDL version 420,2013-08-27 16:56:00,
2013-08-27 13:01:00,74.6,62.9,29.85,SSE,158,1.6,3.4,66,0.00,,,0.00,WSDL version 420,2013-08-27 17:01:00,
2013-08-27 13:06:00,74.5,62.2,29.85,WSW,248,1.2,3.4,66,0.00,,,0.00,WSDL version 420,2013-08-27 17:06:00,
2013-08-27 13:11:00,74.9,63.2,29.85,SW,225,1.1,1.6,66,0.00,,,0.00,WSDL version 420,2013-08-27 17:11:00,
2013-08-27 13:23:00,76.3,61.9,29.85,East,98,3.2,4.9,61,0.00,,,0.00,WSDL version 420,2013-08-27 17:23:00,
2013-08-27 13:28:00,76.6,61.2,29.85,SSE,152,2.1,4.9,59,0.00,,,0.00,WSDL version 420,2013-08-27 17:28:00,
2013-08-27 13:33:00,76.9,62.0,29.85,East,90,1.3,4.5,59,0.00,,,0.00,WSDL version 420,2013-08-27 17:33:00,
2013-08-27 13:38:00,77.0,60.4,29.85,ENE,68,2.1,4.5,56,0.00,,,0.00,WSDL version 420,2013-08-27 17:38:00,
2013-08-27 13:43:00,77.1,61.0,29.85,SE,135,2.2,4.5,57,0.00,,,0.00,WSDL version 420,2013-08-27 17:43:00,
2013-08-27 13:48:00,77.4,60.6,29.85,East,90,2.0,4.3,56,0.00,,,0.00,WSDL version 420,2013-08-27 17:48:00,
2013-08-27 13:53:00,77.0,60.6,29.85,NNE,23,0.4,4.3,57,0.00,,,0.00,WSDL version 420,2013-08-27 17:53:00,
2013-08-27 13:58:00,76.5,61.2,29.85,NNE,23,1.3,3.6,60,0.00,,,0.00,WSDL version 420,2013-08-27 17:58:00,
2013-08-27 14:03:00,77.0,61.6,29.83,NNE,23,2.7,2.9,58,0.00,,,0.00,WSDL version 420,2013-08-27 18:03:00,
2013-08-27 14:08:00,77.1,61.6,29.83,East,79,3.1,3.1,59,0.00,,,0.00,WSDL version 420,2013-08-27 18:08:00,
2013-08-27 14:13:00,77.5,61.3,29.83,ENE,68,1.5,5.4,58,0.00,,,0.00,WSDL version 420,2013-08-27 18:13:00,
2013-08-27 14:20:00,78.4,62.4,29.85,ESE,120,2.0,8.5,57,0.00,,,0.00,WSDL version 420,2013-08-27 18:20:00,
2013-08-27 14:26:00,78.4,61.5,29.85,East,98,2.7,8.5,56,0.00,,,0.00,WSDL version 420,2013-08-27 18:26:00,
2013-08-27 14:31:00,78.7,60.7,29.83,ESE,113,2.7,4.0,53,0.00,,,0.00,WSDL version 420,2013-08-27 18:31:00,
2013-08-27 14:36:00,78.5,60.0,29.83,East,83,2.3,3.4,54,0.00,,,0.00,WSDL version 420,2013-08-27 18:36:00,
2013-08-27 14:41:00,78.2,61.1,29.83,ENE,68,2.7,3.4,56,0.00,,,0.00,WSDL version 420,2013-08-27 18:41:00,
2013-08-27 14:48:00,79.0,61.5,29.80,East,90,4.0,4.0,55,0.00,,,0.00,WSDL version 420,2013-08-27 18:48:00,
2013-08-27 14:53:00,79.2,61.4,29.80,East,90,4.0,4.0,54,0.00,,,0.00,WSDL version 420,2013-08-27 18:53:00,
2013-08-27 15:02:00,79.7,62.1,29.80,NE,41,2.5,5.6,55,0.00,,,0.00,WSDL version 420,2013-08-27 19:02:00,
2013-08-27 15:07:00,79.4,61.4,29.80,NNE,23,2.7,4.0,54,0.00,,,0.00,WSDL version 420,2013-08-27 19:07:00,
2013-08-27 15:12:00,79.3,61.7,29.80,NNE,23,1.5,3.8,55,0.00,,,0.00,WSDL version 420,2013-08-27 19:12:00,
2013-08-27 15:17:00,79.2,61.6,29.80,NNE,23,1.3,2.7,55,0.00,,,0.00,WSDL version 420,2013-08-27 19:17:00,
2013-08-27 15:22:00,79.0,60.4,29.80,NNE,23,0.6,2.7,53,0.00,,,0.00,WSDL version 420,2013-08-27 19:22:00,
2013-08-27 15:27:00,79.0,60.8,29.80,North,0,0.0,2.5,53,0.00,,,0.00,WSDL version 420,2013-08-27 19:27:00,
2013-08-27 15:32:00,79.4,60.3,29.77,NNE,23,2.1,3.1,51,0.00,,,0.00,WSDL version 420,2013-08-27 19:32:00,
2013-08-27 15:37:00,79.3,60.0,29.77,NNE,23,1.6,3.1,51,0.00,,,0.00,WSDL version 420,2013-08-27 19:37:00,
2013-08-27 15:42:00,79.5,59.8,29.77,NNE,23,0.9,2.7,51,0.00,,,0.00,WSDL version 420,2013-08-27 19:42:00,
2013-08-27 15:47:00,80.1,60.6,29.77,NNE,23,0.3,2.7,52,0.00,,,0.00,WSDL version 420,2013-08-27 19:47:00,
2013-08-27 15:52:00,80.2,60.4,29.77,NNE,23,1.5,3.4,51,0.00,,,0.00,WSDL version 420,2013-08-27 19:52:00,
2013-08-27 15:57:00,80.0,60.0,29.77,NNE,23,1.5,3.4,50,0.00,,,0.00,WSDL version 420,2013-08-27 19:57:00,
2013-08-27 16:02:00,80.2,59.7,29.80,NNE,23,1.9,4.3,49,0.00,,,0.00,WSDL version 420,2013-08-27 20:02:00,
2013-08-27 16:07:00,80.5,59.9,29.80,NNE,23,2.5,4.3,50,0.00,,,0.00,WSDL version 420,2013-08-27 20:07:00,
2013-08-27 16:12:00,80.1,59.8,29.80,NNE,23,0.7,3.8,50,0.00,,,0.00,WSDL version 420,2013-08-27 20:12:00,
2013-08-27 16:17:00,80.4,61.7,29.77,NNE,23,0.0,2.5,53,0.00,,,0.00,WSDL version 420,2013-08-27 20:17:00,
2013-08-27 16:22:00,80.6,61.1,29.77,NNE,23,1.8,2.7,50,0.00,,,0.00,WSDL version 420,2013-08-27 20:22:00,
2013-08-27 16:27:00,80.5,60.4,29.77,NNE,23,0.7,2.7,51,0.00,,,0.00,WSDL version 420,2013-08-27 20:27:00,
2013-08-27 16:34:00,79.3,60.2,-100.00,ENE,68,0.0,3.6,52,0.00,,,0.00,WSDL version 420,2013-08-27 20:34:00,
2013-08-27 16:39:00,79.0,62.2,29.80,ENE,68,0.0,2.2,60,0.00,,,0.00,WSDL version 420,2013-08-27 20:39:00,
2013-08-27 16:45:00,60.0,58.0,29.92,WNW,292,10.0,18.0,98,0.27,,,3.29,WSDL version 000,2013-08-27 20:45:00,
2013-08-27 16:50:00,78.6,62.8,29.80,WSW,248,0.0,3.8,60,0.00,,,0.00,WSDL version 420,2013-08-27 20:50:00,
2013-08-27 17:08:00,76.5,62.0,29.80,NNE,23,0.0,1.3,61,0.00,,,0.00,WSDL version 420,2013-08-27 21:08:00,
2013-08-27 17:20:00,75.0,62.0,29.80,NNE,23,1.1,2.5,64,0.00,,,0.00,WSDL version 420,2013-08-27 21:20:00,
2013-08-27 17:58:00,72.5,61.3,29.80,WSW,248,2.2,2.7,68,0.00,,,0.00,WSDL version 420,2013-08-27 21:58:00,
2013-08-27 18:05:00,72.1,61.4,29.80,SW,225,1.6,2.7,69,0.00,,,0.00,WSDL version 420,2013-08-27 22:05:00,
2013-08-27 18:10:00,71.9,61.4,29.80,SW,225,1.6,2.2,70,0.00,,,0.00,WSDL version 420,2013-08-27 22:10:00,
2013-08-27 18:15:00,71.7,61.4,29.80,SW,225,1.6,2.7,70,0.00,,,0.00,WSDL version 420,2013-08-27 22:15:00,
2013-08-27 18:20:00,71.5,61.5,29.80,SW,225,1.6,2.7,71,0.00,,,0.00,WSDL version 420,2013-08-27 22:20:00,
2013-08-27 18:25:00,71.3,62.1,29.80,SW,214,1.7,2.0,74,0.00,,,0.00,WSDL version 420,2013-08-27 22:25:00,
2013-08-27 18:30:00,71.2,62.4,29.80,SSW,210,1.6,2.7,74,0.00,,,0.00,WSDL version 420,2013-08-27 22:30:00,
2013-08-27 18:35:00,71.0,62.3,29.80,SSW,203,1.3,2.7,74,0.00,,,0.00,WSDL version 420,2013-08-27 22:35:00,
2013-08-27 18:40:00,70.9,61.8,29.80,SW,225,1.1,2.0,73,0.00,,,0.00,WSDL version 420,2013-08-27 22:40:00,
2013-08-27 18:45:00,70.7,62.0,29.80,SSW,203,2.1,2.9,74,0.00,,,0.00,WSDL version 420,2013-08-27 22:45:00,
2013-08-27 18:50:00,70.6,62.0,29.80,SW,225,1.5,2.9,74,0.00,,,0.00,WSDL version 420,2013-08-27 22:50:00,
2013-08-27 18:55:00,70.3,61.7,29.80,SW,225,2.1,2.5,74,0.00,,,0.00,WSDL version 420,2013-08-27 22:55:00,
2013-08-27 19:00:00,70.3,61.7,29.80,SSW,203,2.0,2.5,74,0.00,,,0.00,WSDL version 420,2013-08-27 23:00:00,
2013-08-27 19:05:00,70.3,61.7,29.80,North,0,0.0,2.2,74,0.00,,,0.00,WSDL version 420,2013-08-27 23:05:00,
2013-08-27 19:11:00,70.3,62.0,29.80,SW,225,3.4,3.4,75,0.00,,,0.00,WSDL version 420,2013-08-27 23:11:00,
2013-08-27 19:16:00,70.4,62.1,29.80,West,270,2.8,2.9,75,0.00,,,0.00,WSDL version 420,2013-08-27 23:16:00,
2013-08-27 19:21:00,70.5,62.2,29.80,WNW,293,2.9,3.4,75,0.00,,,0.00,WSDL version 420,2013-08-27 23:21:00,
2013-08-27 19:26:00,70.5,62.5,29.80,WNW,293,3.3,4.3,76,0.00,,,0.00,WSDL version 420,2013-08-27 23:26:00,
2013-08-27 19:31:00,70.7,62.8,29.80,West,281,4.8,6.0,76,0.00,,,0.00,WSDL version 420,2013-08-27 23:31:00,
2013-08-27 19:36:00,70.7,62.8,29.80,WNW,287,4.5,6.0,76,0.00,,,0.00,WSDL version 420,2013-08-27 23:36:00,
2013-08-27 19:41:00,70.7,62.8,29.80,WNW,288,5.1,9.4,76,0.00,,,0.00,WSDL version 420,2013-08-27 23:41:00,
2013-08-27 19:46:00,70.7,62.8,29.80,WNW,298,3.7,9.4,76,0.00,,,0.00,WSDL version 420,2013-08-27 23:46:00,
2013-08-27 19:51:00,70.5,62.6,29.80,West,270,4.0,5.4,76,0.00,,,0.00,WSDL version 420,2013-08-27 23:51:00,
2013-08-27 19:58:00,70.3,62.4,29.80,WNW,285,3.8,5.4,76,0.00,,,0.00,WSDL version 420,2013-08-27 23:58:00,
2013-08-27 20:03:00,70.2,62.4,29.80,WNW,297,4.5,8.5,77,0.00,,,0.00,WSDL version 420,2013-08-28 00:03:00,
2013-08-27 20:08:00,70.3,62.8,29.80,WNW,302,3.5,8.5,77,0.00,,,0.00,WSDL version 420,2013-08-28 00:08:00,
2013-08-27 20:13:00,70.2,62.7,29.80,WNW,293,2.8,6.0,77,0.00,,,0.00,WSDL version 420,2013-08-28 00:13:00,
2013-08-27 20:18:00,70.1,62.5,29.83,WNW,293,3.5,6.0,77,0.00,,,0.00,WSDL version 420,2013-08-28 00:18:00,
2013-08-27 20:23:00,69.8,62.5,29.83,WNW,295,4.7,7.4,78,0.00,,,0.00,WSDL version 420,2013-08-28 00:23:00,
2013-08-27 20:28:00,69.7,62.8,29.83,WNW,302,4.3,7.8,79,0.00,,,0.00,WSDL version 420,2013-08-28 00:28:00,
2013-08-27 20:33:00,69.6,62.8,29.83,WNW,296,4.5,7.8,79,0.00,,,0.00,WSDL version 420,2013-08-28 00:33:00,
2013-08-27 20:38:00,69.6,63.1,29.83,NW,309,3.8,7.2,80,0.00,,,0.00,WSDL version 420,2013-08-28 00:38:00,
2013-08-27 20:43:00,69.6,63.2,29.83,West,270,4.2,6.5,80,0.00,,,0.00,WSDL version 420,2013-08-28 00:43:00,
2013-08-27 20:48:00,69.6,63.2,29.83,WNW,296,3.7,6.3,80,0.00,,,0.00,WSDL version 420,2013-08-28 00:48:00,
2013-08-27 20:53:00,69.6,63.2,29.83,NW,309,3.1,6.3,80,0.00,,,0.00,WSDL version 420,2013-08-28 00:53:00,
2013-08-27 20:58:00,69.6,63.3,29.83,WNW,293,3.2,4.9,80,0.00,,,0.00,WSDL version 420,2013-08-28 00:58:00,
2013-08-27 21:03:00,69.6,63.6,29.83,North,360,2.3,4.9,81,0.00,,,0.00,WSDL version 420,2013-08-28 01:03:00,